{"data":{"norad_id":41869,"intl_designator":"2016-072A","name":"TIANLIAN 1-04","alt_names":[],"object_type":"PAYLOAD","status":"ACTIVE","operator":null,"country":"PRC","launch_date":"2016-11-22","launch_site_code":"XICLF","launch_vehicle":null,"mission":null,"orbit_class":"UNKNOWN","rcs_meters":21.9479,"size_class":null,"mass_kg":null,"dimensions":null,"purposes":["comms"],"wikipedia_slug":null,"has_3d_model":false,"image_url":null,"decayed_at":null,"tle_current":{"epoch":"2026-09-20T04:04:38.266176Z","epoch_age_seconds":42876,"freshness":"FRESH","line1":"1 41869U 16072A   26263.16988734  .00000027  00000+0  00000+0 0  9996","line2":"2 41869   1.1067  82.0094 0047046  96.6185  58.3843  1.00272263 36254","mean_motion":1.00272263,"eccentricity":0.0047046,"inclination_deg":1.1067,"raan_deg":82.0094,"arg_perigee_deg":96.6185,"mean_anomaly_deg":58.3843,"bstar":0,"rev_number":3625,"period_min":1436.090058125,"perigee_km":35588.093393404,"apogee_km":35984.828528538,"semimajor_km":42164.597960971,"source":"CELESTRAK","updated_at":"2026-09-20T09:00:35.249130Z"}}}